TimeCST,TemperatureF,Dew PointF,Humidity,Sea Level PressureIn,VisibilityMPH,Wind Direction,Wind SpeedMPH,Gust SpeedMPH,PrecipitationIn,Events,Conditions,WindDirDegrees,DateUTC
12:53 AM,30.0,18.0,61,29.87,10.0,South,8.1,-,N/A,,Overcast,180,2012-11-25 06:53:00
1:53 AM,28.0,18.0,66,29.87,-9999.0,South,4.6,-,N/A,,Mostly Cloudy,180,2012-11-25 07:53:00
2:53 AM,28.0,19.0,69,29.88,10.0,South,4.6,-,N/A,,Mostly Cloudy,190,2012-11-25 08:53:00
3:53 AM,26.1,18.0,71,29.86,10.0,South,4.6,-,N/A,,Clear,190,2012-11-25 09:53:00
4:53 AM,24.1,18.0,77,29.88,10.0,SSW,3.5,-,N/A,,Clear,210,2012-11-25 10:53:00
5:53 AM,25.0,19.0,78,29.88,10.0,Calm,Calm,-,N/A,,Mostly Cloudy,0,2012-11-25 11:53:00
6:53 AM,27.0,21.0,78,29.90,10.0,Calm,Calm,-,N/A,,Overcast,0,2012-11-25 12:53:00
7:16 AM,26.6,21.2,80,29.87,10.0,Calm,Calm,-,N/A,,Overcast,0,2012-11-25 13:16:00
7:53 AM,30.0,21.0,69,29.92,10.0,NNW,5.8,-,N/A,,Overcast,340,2012-11-25 13:53:00
8:53 AM,32.0,21.0,64,29.94,10.0,NW,12.7,-,N/A,,Overcast,320,2012-11-25 14:53:00
9:53 AM,33.1,21.0,61,29.96,10.0,NW,13.8,-,N/A,,Overcast,320,2012-11-25 15:53:00
10:53 AM,35.1,21.0,57,29.98,10.0,NW,12.7,-,N/A,,Overcast,310,2012-11-25 16:53:00
11:25 AM,35.6,21.2,56,29.94,10.0,WNW,10.4,-,N/A,,Scattered Clouds,300,2012-11-25 17:25:00
11:53 AM,35.1,21.0,57,29.97,10.0,WNW,8.1,-,N/A,,Clear,300,2012-11-25 17:53:00
12:53 PM,36.0,19.9,52,29.96,10.0,NNW,13.8,-,N/A,,Clear,330,2012-11-25 18:53:00
1:53 PM,37.0,21.9,54,29.96,10.0,NNW,11.5,-,N/A,,Clear,330,2012-11-25 19:53:00
2:53 PM,37.0,21.9,54,29.97,10.0,NNW,11.5,-,N/A,,Clear,330,2012-11-25 20:53:00
3:53 PM,35.1,21.9,59,29.99,10.0,NNW,6.9,-,N/A,,Clear,330,2012-11-25 21:53:00
4:53 PM,32.0,21.0,64,30.01,10.0,NNW,9.2,-,N/A,,Clear,330,2012-11-25 22:53:00
5:53 PM,30.9,21.9,69,30.05,10.0,NNW,10.4,-,N/A,,Clear,330,2012-11-25 23:53:00
6:53 PM,30.0,21.0,69,30.08,10.0,NW,15.0,-,N/A,,Mostly Cloudy,320,2012-11-26 00:53:00
7:53 PM,28.0,18.0,66,30.10,10.0,NNW,17.3,-,N/A,,Partly Cloudy,330,2012-11-26 01:53:00
8:53 PM,24.1,17.1,75,30.12,10.0,Calm,Calm,-,N/A,,Clear,0,2012-11-26 02:53:00
9:53 PM,25.0,17.1,72,30.13,10.0,Calm,Calm,-,N/A,,Scattered Clouds,0,2012-11-26 03:53:00
10:53 PM,24.1,19.0,81,30.14,10.0,Calm,Calm,-,N/A,,Overcast,0,2012-11-26 04:53:00
11:53 PM,28.0,21.0,75,30.16,10.0,SSW,4.6,-,N/A,,Overcast,200,2012-11-26 05:53:00